Year,Month,Day,Hour,Minute,Value (Times are PST for temperature in C)
2006,09,27,00,00,13.00
2006,09,27,00,01,13.00
2006,09,27,00,02,13.00
2006,09,27,00,03,12.90
2006,09,27,00,04,12.90
2006,09,27,00,05,12.90
2006,09,27,00,06,12.90
2006,09,27,00,07,12.90
2006,09,27,00,08,12.90
2006,09,27,00,09,12.90
2006,09,27,00,10,12.80
2006,09,27,00,11,12.80
2006,09,27,00,12,12.80
2006,09,27,00,13,12.80
2006,09,27,00,14,12.80
2006,09,27,00,15,12.80
2006,09,27,00,16,12.80
2006,09,27,00,17,12.70
2006,09,27,00,18,12.70
2006,09,27,00,19,12.70
2006,09,27,00,20,12.70
2006,09,27,00,21,12.70
2006,09,27,00,22,12.70
2006,09,27,00,23,12.70
2006,09,27,00,24,12.70
2006,09,27,00,25,12.70
2006,09,27,00,26,12.70
2006,09,27,00,27,12.70
2006,09,27,00,28,12.70
2006,09,27,00,29,12.70
2006,09,27,00,30,12.70
2006,09,27,00,31,12.70
2006,09,27,00,32,12.70
2006,09,27,00,33,12.70
2006,09,27,00,34,12.70
2006,09,27,00,35,12.70
2006,09,27,00,36,12.70
2006,09,27,00,37,12.70
2006,09,27,00,38,12.70
2006,09,27,00,39,12.70
2006,09,27,00,40,12.70
2006,09,27,00,41,12.70
2006,09,27,00,42,12.70
2006,09,27,00,43,12.70
2006,09,27,00,44,12.70
2006,09,27,00,45,12.70
2006,09,27,00,46,12.70
2006,09,27,00,47,12.70
2006,09,27,00,48,12.70
2006,09,27,00,49,12.70
2006,09,27,00,50,12.70
2006,09,27,00,51,12.70
2006,09,27,00,52,12.70
2006,09,27,00,53,12.70
2006,09,27,00,54,12.70
2006,09,27,00,55,12.70
2006,09,27,00,56,12.70
2006,09,27,00,57,12.70
2006,09,27,00,58,12.60
2006,09,27,00,59,12.60
2006,09,27,01,00,12.60
2006,09,27,01,01,12.60
2006,09,27,01,02,12.60
2006,09,27,01,03,12.50
2006,09,27,01,04,12.50
2006,09,27,01,05,12.50
2006,09,27,01,06,12.50
2006,09,27,01,07,12.40
2006,09,27,01,08,12.40
2006,09,27,01,09,12.40
2006,09,27,01,10,12.40
2006,09,27,01,11,12.40
2006,09,27,01,12,12.30
2006,09,27,01,13,12.30
2006,09,27,01,14,12.30
2006,09,27,01,15,12.20
2006,09,27,01,16,12.20
2006,09,27,01,17,12.20
2006,09,27,01,18,12.20
2006,09,27,01,19,12.20
2006,09,27,01,20,12.10
2006,09,27,01,21,12.10
2006,09,27,01,22,12.10
2006,09,27,01,23,12.10
2006,09,27,01,24,12.10
2006,09,27,01,25,12.10
2006,09,27,01,26,12.10
2006,09,27,01,27,12.10
2006,09,27,01,28,12.10
2006,09,27,01,29,12.20
2006,09,27,01,30,12.20
2006,09,27,01,31,12.20
2006,09,27,01,32,12.20
2006,09,27,01,33,12.20
2006,09,27,01,34,12.10
2006,09,27,01,35,12.10
2006,09,27,01,36,12.10
2006,09,27,01,37,12.10
2006,09,27,01,38,12.10
2006,09,27,01,39,12.10
2006,09,27,01,40,12.10
2006,09,27,01,41,12.10
2006,09,27,01,42,12.10
2006,09,27,01,43,12.10
2006,09,27,01,44,12.10
2006,09,27,01,45,12.10
2006,09,27,01,46,12.10
2006,09,27,01,47,12.10
2006,09,27,01,48,12.10
2006,09,27,01,49,12.10
2006,09,27,01,50,12.10
2006,09,27,01,51,12.10
2006,09,27,01,52,12.00
2006,09,27,01,53,12.00
2006,09,27,01,54,12.00
2006,09,27,01,55,12.00
2006,09,27,01,56,12.00
2006,09,27,01,57,12.00
2006,09,27,01,58,12.10
2006,09,27,01,59,12.10
2006,09,27,02,00,12.10
2006,09,27,02,01,12.10
2006,09,27,02,02,12.10
2006,09,27,02,03,12.10
2006,09,27,02,04,12.10
2006,09,27,02,05,12.10
2006,09,27,02,06,12.10
2006,09,27,02,07,12.10
2006,09,27,02,08,12.10
2006,09,27,02,09,12.10
2006,09,27,02,10,12.10
2006,09,27,02,11,12.10
2006,09,27,02,12,12.10
2006,09,27,02,13,12.10
2006,09,27,02,14,12.10
2006,09,27,02,15,12.10
2006,09,27,02,16,12.10
2006,09,27,02,17,12.10
2006,09,27,02,18,12.10
2006,09,27,02,19,12.10
2006,09,27,02,20,12.10
2006,09,27,02,21,12.10
2006,09,27,02,22,12.10
2006,09,27,02,23,12.10
2006,09,27,02,24,12.10
2006,09,27,02,25,12.10
2006,09,27,02,26,12.10
2006,09,27,02,27,12.10
2006,09,27,02,28,12.20
2006,09,27,02,29,12.20
2006,09,27,02,30,12.20
2006,09,27,02,31,12.10
2006,09,27,02,32,12.10
2006,09,27,02,33,12.00
2006,09,27,02,34,12.00
2006,09,27,02,35,11.90
2006,09,27,02,36,11.90
2006,09,27,02,37,11.80
2006,09,27,02,38,11.70
2006,09,27,02,39,11.70
2006,09,27,02,40,11.70
2006,09,27,02,41,11.60
2006,09,27,02,42,11.60
2006,09,27,02,43,11.60
2006,09,27,02,44,11.60
2006,09,27,02,45,11.60
2006,09,27,02,46,11.60
2006,09,27,02,47,11.60
2006,09,27,02,48,11.60
2006,09,27,02,49,11.70
2006,09,27,02,50,11.70
2006,09,27,02,51,11.70
2006,09,27,02,52,11.80
2006,09,27,02,53,11.80
2006,09,27,02,54,11.80
2006,09,27,02,55,11.80
2006,09,27,02,56,11.80
2006,09,27,02,57,11.80
2006,09,27,02,58,11.80
2006,09,27,02,59,11.70
2006,09,27,03,00,11.70
2006,09,27,03,01,11.70
2006,09,27,03,02,11.70
2006,09,27,03,03,11.70
2006,09,27,03,04,11.70
2006,09,27,03,05,11.60
2006,09,27,03,06,11.60
2006,09,27,03,07,11.60
2006,09,27,03,08,11.60
2006,09,27,03,09,11.60
2006,09,27,03,10,11.60
2006,09,27,03,11,11.60
2006,09,27,03,12,11.70
2006,09,27,03,13,11.70
2006,09,27,03,14,11.70
2006,09,27,03,15,11.80
2006,09,27,03,16,11.80
2006,09,27,03,17,11.90
2006,09,27,03,18,12.00
2006,09,27,03,19,12.10
2006,09,27,03,20,12.10
2006,09,27,03,21,12.10
2006,09,27,03,22,12.10
2006,09,27,03,23,12.10
2006,09,27,03,24,12.10
2006,09,27,03,25,12.20
2006,09,27,03,26,12.20
2006,09,27,03,27,12.20
2006,09,27,03,28,12.20
2006,09,27,03,29,12.20
2006,09,27,03,30,12.20
2006,09,27,03,31,12.30
2006,09,27,03,32,12.30
2006,09,27,03,33,12.40
2006,09,27,03,34,12.40
2006,09,27,03,35,12.40
2006,09,27,03,36,12.40
2006,09,27,03,37,12.40
2006,09,27,03,38,12.40
2006,09,27,03,39,12.40
2006,09,27,03,40,12.30
2006,09,27,03,41,12.30
2006,09,27,03,42,12.30
2006,09,27,03,43,12.30
2006,09,27,03,44,12.30
2006,09,27,03,45,12.30
2006,09,27,03,46,12.30
2006,09,27,03,47,12.20
2006,09,27,03,48,12.10
2006,09,27,03,49,12.00
2006,09,27,03,50,12.00
2006,09,27,03,51,11.90
2006,09,27,03,52,11.80
2006,09,27,03,53,11.80
2006,09,27,03,54,11.80
2006,09,27,03,55,11.70
2006,09,27,03,56,11.70
2006,09,27,03,57,11.70
2006,09,27,03,58,11.70
2006,09,27,03,59,11.70
2006,09,27,04,00,11.70
2006,09,27,04,01,11.70
2006,09,27,04,02,11.70
2006,09,27,04,03,11.60
2006,09,27,04,04,11.60
2006,09,27,04,05,11.60
2006,09,27,04,06,11.70
2006,09,27,04,07,11.70
2006,09,27,04,08,11.70
2006,09,27,04,09,11.80
2006,09,27,04,10,11.80
2006,09,27,04,11,11.80
2006,09,27,04,12,11.80
2006,09,27,04,13,11.80
2006,09,27,04,14,11.70
2006,09,27,04,15,11.70
2006,09,27,04,16,11.70
2006,09,27,04,17,11.70
2006,09,27,04,18,11.70
2006,09,27,04,19,11.70
2006,09,27,04,20,11.70
2006,09,27,04,21,11.60
2006,09,27,04,22,11.60
2006,09,27,04,23,11.60
2006,09,27,04,24,11.60
2006,09,27,04,25,11.60
2006,09,27,04,26,11.60
2006,09,27,04,27,11.50
2006,09,27,04,28,11.50
2006,09,27,04,29,11.50
2006,09,27,04,30,11.40
2006,09,27,04,31,11.40
2006,09,27,04,32,11.40
2006,09,27,04,33,11.40
2006,09,27,04,34,11.30
2006,09,27,04,35,11.30
2006,09,27,04,36,11.30
2006,09,27,04,37,11.30
2006,09,27,04,38,11.30
2006,09,27,04,39,11.30
2006,09,27,04,40,11.30
2006,09,27,04,41,11.30
2006,09,27,04,42,11.30
2006,09,27,04,43,11.30
2006,09,27,04,44,11.20
2006,09,27,04,45,11.20
2006,09,27,04,46,11.20
2006,09,27,04,47,11.30
2006,09,27,04,48,11.30
2006,09,27,04,49,11.30
2006,09,27,04,50,11.30
2006,09,27,04,51,11.40
2006,09,27,04,52,11.40
2006,09,27,04,53,11.40
2006,09,27,04,54,11.40
2006,09,27,04,55,11.50
2006,09,27,04,56,11.50
2006,09,27,04,57,11.50
2006,09,27,04,58,11.50
2006,09,27,04,59,11.60
2006,09,27,05,00,11.70
2006,09,27,05,01,11.80
2006,09,27,05,02,11.80
2006,09,27,05,03,11.90
2006,09,27,05,04,12.00
2006,09,27,05,05,12.10
2006,09,27,05,06,12.10
2006,09,27,05,07,12.20
2006,09,27,05,08,12.20
2006,09,27,05,09,12.20
2006,09,27,05,10,12.30
2006,09,27,05,11,12.30
2006,09,27,05,12,12.30
2006,09,27,05,13,12.30
2006,09,27,05,14,12.30
2006,09,27,05,15,12.20
2006,09,27,05,16,12.20
2006,09,27,05,17,12.20
2006,09,27,05,18,12.20
2006,09,27,05,19,12.10
2006,09,27,05,20,12.00
2006,09,27,05,21,11.90
2006,09,27,05,22,11.90
2006,09,27,05,23,11.80
2006,09,27,05,24,11.70
2006,09,27,05,25,11.60
2006,09,27,05,26,11.50
2006,09,27,05,27,11.40
2006,09,27,05,28,11.40
2006,09,27,05,29,11.30
2006,09,27,05,30,11.30
2006,09,27,05,31,11.20
2006,09,27,05,32,11.10
2006,09,27,05,33,11.00
2006,09,27,05,34,11.00
2006,09,27,05,35,10.90
2006,09,27,05,36,10.90
2006,09,27,05,37,10.90
2006,09,27,05,38,10.80
2006,09,27,05,39,10.80
2006,09,27,05,40,10.80
2006,09,27,05,41,10.80
2006,09,27,05,42,10.80
2006,09,27,05,43,10.80
2006,09,27,05,44,10.80
2006,09,27,05,45,10.80
2006,09,27,05,46,10.80
2006,09,27,05,47,10.80
2006,09,27,05,48,10.80
2006,09,27,05,49,10.90
2006,09,27,05,50,10.90
2006,09,27,05,51,11.00
2006,09,27,05,52,11.00
2006,09,27,05,53,11.00
2006,09,27,05,54,11.10
2006,09,27,05,55,11.10
2006,09,27,05,56,11.10
2006,09,27,05,57,11.10
2006,09,27,05,58,11.10
2006,09,27,05,59,11.00
2006,09,27,06,00,11.00
2006,09,27,06,01,11.00
2006,09,27,06,02,11.10
2006,09,27,06,03,11.10
2006,09,27,06,04,11.10
2006,09,27,06,05,11.10
2006,09,27,06,06,11.00
2006,09,27,06,07,11.00
2006,09,27,06,08,11.00
2006,09,27,06,09,11.00
2006,09,27,06,10,11.10
2006,09,27,06,11,11.10
2006,09,27,06,12,11.20
2006,09,27,06,13,11.30
2006,09,27,06,14,11.30
2006,09,27,06,15,11.30
2006,09,27,06,16,11.40
2006,09,27,06,17,11.40
2006,09,27,06,18,11.30
2006,09,27,06,19,11.30
2006,09,27,06,20,11.30
2006,09,27,06,21,11.30
2006,09,27,06,22,11.30
2006,09,27,06,23,11.30
2006,09,27,06,24,11.30
2006,09,27,06,25,11.30
2006,09,27,06,26,11.30
2006,09,27,06,27,11.40
2006,09,27,06,28,11.50
2006,09,27,06,29,11.60
2006,09,27,06,30,11.60
2006,09,27,06,31,11.70
2006,09,27,06,32,11.70
2006,09,27,06,33,11.80
2006,09,27,06,34,11.80
2006,09,27,06,35,11.80
2006,09,27,06,36,11.80
2006,09,27,06,37,11.80
2006,09,27,06,38,11.80
2006,09,27,06,39,11.90
2006,09,27,06,40,11.90
2006,09,27,06,41,11.80
2006,09,27,06,42,11.80
2006,09,27,06,43,11.80
2006,09,27,06,44,11.80
2006,09,27,06,45,11.70
2006,09,27,06,46,11.70
2006,09,27,06,47,11.70
2006,09,27,06,48,11.70
2006,09,27,06,49,11.60
2006,09,27,06,50,11.60
2006,09,27,06,51,11.50
2006,09,27,06,52,11.50
2006,09,27,06,53,11.40
2006,09,27,06,54,11.40
2006,09,27,06,55,11.30
2006,09,27,06,56,11.30
2006,09,27,06,57,11.20
2006,09,27,06,58,11.20
2006,09,27,06,59,11.10
2006,09,27,07,00,11.10
2006,09,27,07,01,11.10
2006,09,27,07,02,11.00
2006,09,27,07,03,11.00
2006,09,27,07,04,10.90
2006,09,27,07,05,10.80
2006,09,27,07,06,10.80
2006,09,27,07,07,10.70
2006,09,27,07,08,10.70
2006,09,27,07,09,10.70
2006,09,27,07,10,10.60
2006,09,27,07,11,10.60
2006,09,27,07,12,10.60
2006,09,27,07,13,10.70
2006,09,27,07,14,10.70
2006,09,27,07,15,10.70
2006,09,27,07,16,10.70
2006,09,27,07,17,10.80
2006,09,27,07,18,10.80
2006,09,27,07,19,10.80
2006,09,27,07,20,10.80
2006,09,27,07,21,10.90
2006,09,27,07,22,10.90
2006,09,27,07,23,10.90
2006,09,27,07,24,10.90
2006,09,27,07,25,10.90
2006,09,27,07,26,10.90
2006,09,27,07,27,10.90
2006,09,27,07,28,10.90
2006,09,27,07,29,10.90
2006,09,27,07,30,10.90
2006,09,27,07,31,10.90
2006,09,27,07,32,10.90
2006,09,27,07,33,10.80
2006,09,27,07,34,10.80
2006,09,27,07,35,10.80
2006,09,27,07,36,10.80
2006,09,27,07,37,10.80
2006,09,27,07,38,10.80
2006,09,27,07,39,10.80
2006,09,27,07,40,10.80
2006,09,27,07,41,10.80
2006,09,27,07,42,10.80
2006,09,27,07,43,10.80
2006,09,27,07,44,10.80
2006,09,27,07,45,10.80
2006,09,27,07,46,10.80
2006,09,27,07,47,10.80
2006,09,27,07,48,10.80
2006,09,27,07,49,10.80
2006,09,27,07,50,10.80
2006,09,27,07,51,10.80
2006,09,27,07,52,10.90
2006,09,27,07,53,10.90
2006,09,27,07,54,11.00
2006,09,27,07,55,11.00
2006,09,27,07,56,11.10
2006,09,27,07,57,11.20
2006,09,27,07,58,11.30
2006,09,27,07,59,11.30
2006,09,27,08,00,11.40
2006,09,27,08,01,11.40
2006,09,27,08,02,11.50
2006,09,27,08,03,11.60
2006,09,27,08,04,11.70
2006,09,27,08,05,11.80
2006,09,27,08,06,11.80
2006,09,27,08,07,11.90
2006,09,27,08,08,12.00
2006,09,27,08,09,12.00
2006,09,27,08,10,12.10
2006,09,27,08,11,12.20
2006,09,27,08,12,12.30
2006,09,27,08,13,12.40
2006,09,27,08,14,12.50
2006,09,27,08,15,12.60
2006,09,27,08,16,12.70
2006,09,27,08,17,12.80
2006,09,27,08,18,12.80
2006,09,27,08,19,12.90
2006,09,27,08,20,13.00
2006,09,27,08,21,13.00
2006,09,27,08,22,13.10
2006,09,27,08,23,13.10
2006,09,27,08,24,13.20
2006,09,27,08,25,13.30
2006,09,27,08,26,13.40
2006,09,27,08,27,13.60
2006,09,27,08,28,13.70
2006,09,27,08,29,13.80
2006,09,27,08,30,14.00
2006,09,27,08,31,14.10
2006,09,27,08,32,14.20
2006,09,27,08,33,14.30
2006,09,27,08,34,14.40
2006,09,27,08,35,14.50
2006,09,27,08,36,14.60
2006,09,27,08,37,14.70
2006,09,27,08,38,14.80
2006,09,27,08,39,14.90
2006,09,27,08,40,15.00
2006,09,27,08,41,15.00
2006,09,27,08,42,15.10
2006,09,27,08,43,15.30
2006,09,27,08,44,15.40
2006,09,27,08,45,15.60
2006,09,27,08,46,15.70
2006,09,27,08,47,15.90
2006,09,27,08,48,16.00
2006,09,27,08,49,16.10
2006,09,27,08,50,16.20
2006,09,27,08,51,16.20
2006,09,27,08,52,16.20
2006,09,27,08,53,16.20
2006,09,27,08,54,16.20
2006,09,27,08,55,16.10
2006,09,27,08,56,16.10
2006,09,27,08,57,16.10
2006,09,27,08,58,16.10
2006,09,27,08,59,16.10
2006,09,27,09,00,16.10
2006,09,27,09,01,16.10
2006,09,27,09,02,16.20
2006,09,27,09,03,16.20
2006,09,27,09,04,16.30
2006,09,27,09,05,16.40
2006,09,27,09,06,16.40
2006,09,27,09,07,16.50
2006,09,27,09,08,16.60
2006,09,27,09,09,16.70
2006,09,27,09,10,16.80
2006,09,27,09,11,16.80
2006,09,27,09,12,16.80
2006,09,27,09,13,16.90
2006,09,27,09,14,16.90
2006,09,27,09,15,17.00
2006,09,27,09,16,17.00
2006,09,27,09,17,17.10
2006,09,27,09,18,17.20
2006,09,27,09,19,17.30
2006,09,27,09,20,17.30
2006,09,27,09,21,17.40
2006,09,27,09,22,17.50
2006,09,27,09,23,17.50
2006,09,27,09,24,17.60
2006,09,27,09,25,17.70
2006,09,27,09,26,17.80
2006,09,27,09,27,17.90
2006,09,27,09,28,18.00
2006,09,27,09,29,18.10
2006,09,27,09,30,18.10
2006,09,27,09,31,18.10
2006,09,27,09,32,18.10
2006,09,27,09,33,18.10
2006,09,27,09,34,18.10
2006,09,27,09,35,18.10
2006,09,27,09,36,18.10
2006,09,27,09,37,18.10
2006,09,27,09,38,18.10
2006,09,27,09,39,18.10
2006,09,27,09,40,18.10
2006,09,27,09,41,18.10
2006,09,27,09,42,18.10
2006,09,27,09,43,18.10
2006,09,27,09,44,18.10
2006,09,27,09,45,18.10
2006,09,27,09,46,18.00
2006,09,27,09,47,18.00
2006,09,27,09,48,18.00
2006,09,27,09,49,18.00
2006,09,27,09,50,18.10
2006,09,27,09,51,18.10
2006,09,27,09,52,18.10
2006,09,27,09,53,18.10
2006,09,27,09,54,18.10
2006,09,27,09,55,18.20
2006,09,27,09,56,18.20
2006,09,27,09,57,18.20
2006,09,27,09,58,18.20
2006,09,27,09,59,18.20
2006,09,27,10,00,18.20
2006,09,27,10,01,18.20
2006,09,27,10,02,18.20
2006,09,27,10,03,18.20
2006,09,27,10,04,18.20
2006,09,27,10,05,18.20
2006,09,27,10,06,18.20
2006,09,27,10,07,18.20
2006,09,27,10,08,18.20
2006,09,27,10,09,18.20
2006,09,27,10,10,18.20
2006,09,27,10,11,18.20
2006,09,27,10,12,18.20
2006,09,27,10,13,18.20
2006,09,27,10,14,18.10
2006,09,27,10,15,18.20
2006,09,27,10,16,18.20
2006,09,27,10,17,18.20
2006,09,27,10,18,18.20
2006,09,27,10,19,18.20
2006,09,27,10,20,18.30
2006,09,27,10,21,18.30
2006,09,27,10,22,18.30
2006,09,27,10,23,18.30
2006,09,27,10,24,18.30
2006,09,27,10,25,18.30
2006,09,27,10,26,18.30
2006,09,27,10,27,18.40
2006,09,27,10,28,18.50
2006,09,27,10,29,18.50
2006,09,27,10,30,18.60
2006,09,27,10,31,18.70
2006,09,27,10,32,18.70
2006,09,27,10,33,18.70
2006,09,27,10,34,18.70
2006,09,27,10,35,18.70
2006,09,27,10,36,18.80
2006,09,27,10,37,18.90
2006,09,27,10,38,18.90
2006,09,27,10,39,18.90
2006,09,27,10,40,18.90
2006,09,27,10,41,18.90
2006,09,27,10,42,18.90
2006,09,27,10,43,18.90
2006,09,27,10,44,18.90
2006,09,27,10,45,18.90
2006,09,27,10,46,18.90
2006,09,27,10,47,18.80
2006,09,27,10,48,18.90
2006,09,27,10,49,18.90
2006,09,27,10,50,19.00
2006,09,27,10,51,19.00
2006,09,27,10,52,19.10
2006,09,27,10,53,19.20
2006,09,27,10,54,19.20
2006,09,27,10,55,19.30
2006,09,27,10,56,19.30
2006,09,27,10,57,19.40
2006,09,27,10,58,19.40
2006,09,27,10,59,19.40
2006,09,27,11,00,19.40
2006,09,27,11,01,19.40
2006,09,27,11,02,19.40
2006,09,27,11,03,19.50
2006,09,27,11,04,19.50
2006,09,27,11,05,19.60
2006,09,27,11,06,19.60
2006,09,27,11,07,19.60
2006,09,27,11,08,19.70
2006,09,27,11,09,19.70
2006,09,27,11,10,19.80
2006,09,27,11,11,19.90
2006,09,27,11,12,19.90
2006,09,27,11,13,19.90
2006,09,27,11,14,19.90
2006,09,27,11,15,19.90
2006,09,27,11,16,19.90
2006,09,27,11,17,19.90
2006,09,27,11,18,20.00
2006,09,27,11,19,20.10
2006,09,27,11,20,20.10
2006,09,27,11,21,20.10
2006,09,27,11,22,20.20
2006,09,27,11,23,20.20
2006,09,27,11,24,20.10
2006,09,27,11,25,20.10
2006,09,27,11,26,20.10
2006,09,27,11,27,20.10
2006,09,27,11,28,20.10
2006,09,27,11,29,20.20
2006,09,27,11,30,20.20
2006,09,27,11,31,20.30
2006,09,27,11,32,20.20
2006,09,27,11,33,20.30
2006,09,27,11,34,20.30
2006,09,27,11,35,20.30
2006,09,27,11,36,20.30
2006,09,27,11,37,20.30
2006,09,27,11,38,20.30
2006,09,27,11,39,20.30
2006,09,27,11,40,20.30
2006,09,27,11,41,20.30
2006,09,27,11,42,20.30
2006,09,27,11,43,20.30
2006,09,27,11,44,20.40
2006,09,27,11,45,20.40
2006,09,27,11,46,20.40
2006,09,27,11,47,20.30
2006,09,27,11,48,20.30
2006,09,27,11,49,20.20
2006,09,27,11,50,20.20
2006,09,27,11,51,20.20
2006,09,27,11,52,20.30
2006,09,27,11,53,20.30
2006,09,27,11,54,20.30
2006,09,27,11,55,20.30
2006,09,27,11,56,20.30
2006,09,27,11,57,20.30
2006,09,27,11,58,20.20
2006,09,27,11,59,20.20
2006,09,27,12,00,20.30
2006,09,27,12,01,20.30
2006,09,27,12,02,20.30
2006,09,27,12,03,20.30
2006,09,27,12,04,20.40
2006,09,27,12,05,20.40
2006,09,27,12,06,20.30
2006,09,27,12,07,20.30
2006,09,27,12,08,20.40
2006,09,27,12,09,20.50
2006,09,27,12,10,20.60
2006,09,27,12,11,20.60
2006,09,27,12,12,20.60
2006,09,27,12,13,20.70
2006,09,27,12,14,20.70
2006,09,27,12,15,20.70
2006,09,27,12,16,20.80
2006,09,27,12,17,20.80
2006,09,27,12,18,20.80
2006,09,27,12,19,20.90
2006,09,27,12,20,20.90
2006,09,27,12,21,20.90
2006,09,27,12,22,21.00
2006,09,27,12,23,20.90
2006,09,27,12,24,20.80
2006,09,27,12,25,20.80
2006,09,27,12,26,20.70
2006,09,27,12,27,20.80
2006,09,27,12,28,20.80
2006,09,27,12,29,20.80
2006,09,27,12,30,20.80
2006,09,27,12,31,20.80
2006,09,27,12,32,20.80
2006,09,27,12,33,20.80
2006,09,27,12,34,20.80
2006,09,27,12,35,20.80
2006,09,27,12,36,20.80
2006,09,27,12,37,20.80
2006,09,27,12,38,20.80
2006,09,27,12,39,20.80
2006,09,27,12,40,20.80
2006,09,27,12,41,20.80
2006,09,27,12,42,20.70
2006,09,27,12,43,20.70
2006,09,27,12,44,20.70
2006,09,27,12,45,20.70
2006,09,27,12,46,20.70
2006,09,27,12,47,20.80
2006,09,27,12,48,20.80
2006,09,27,12,49,20.90
2006,09,27,12,50,20.90
2006,09,27,12,51,20.90
2006,09,27,12,52,20.90
2006,09,27,12,53,20.90
2006,09,27,12,54,20.90
2006,09,27,12,55,20.90
2006,09,27,12,56,21.00
2006,09,27,12,57,21.00
2006,09,27,12,58,21.00
2006,09,27,12,59,21.00
2006,09,27,13,00,21.00
2006,09,27,13,01,21.10
2006,09,27,13,02,21.10
2006,09,27,13,03,21.20
2006,09,27,13,04,21.30
2006,09,27,13,05,21.30
2006,09,27,13,06,21.30
2006,09,27,13,07,21.40
2006,09,27,13,08,21.40
2006,09,27,13,09,21.50
2006,09,27,13,10,21.50
2006,09,27,13,11,21.40
2006,09,27,13,12,21.30
2006,09,27,13,13,21.20
2006,09,27,13,14,21.20
2006,09,27,13,15,21.20
2006,09,27,13,16,21.30
2006,09,27,13,17,21.30
2006,09,27,13,18,21.40
2006,09,27,13,19,21.40
2006,09,27,13,20,21.40
2006,09,27,13,21,21.40
2006,09,27,13,22,21.30
2006,09,27,13,23,21.20
2006,09,27,13,24,21.10
2006,09,27,13,25,21.10
2006,09,27,13,26,21.00
2006,09,27,13,27,21.10
2006,09,27,13,28,21.20
2006,09,27,13,29,21.30
2006,09,27,13,30,21.30
2006,09,27,13,31,21.40
2006,09,27,13,32,21.30
2006,09,27,13,33,21.30
2006,09,27,13,34,21.30
2006,09,27,13,35,21.20
2006,09,27,13,36,21.20
2006,09,27,13,37,21.10
2006,09,27,13,38,21.10
2006,09,27,13,39,21.10
2006,09,27,13,40,21.00
2006,09,27,13,41,21.10
2006,09,27,13,42,21.10
2006,09,27,13,43,21.10
2006,09,27,13,44,21.20
2006,09,27,13,45,21.30
2006,09,27,13,46,21.40
2006,09,27,13,47,21.50
2006,09,27,13,48,21.60
2006,09,27,13,49,21.60
2006,09,27,13,50,21.60
2006,09,27,13,51,21.50
2006,09,27,13,52,21.40
2006,09,27,13,53,21.40
2006,09,27,13,54,21.40
2006,09,27,13,55,21.40
2006,09,27,13,56,21.50
2006,09,27,13,57,21.60
2006,09,27,13,58,21.60
2006,09,27,13,59,21.70
2006,09,27,14,00,21.70
2006,09,27,14,01,21.60
2006,09,27,14,02,21.60
2006,09,27,14,03,21.60
2006,09,27,14,04,21.70
2006,09,27,14,05,21.80
2006,09,27,14,06,21.90
2006,09,27,14,07,22.00
2006,09,27,14,08,22.00
2006,09,27,14,09,21.90
2006,09,27,14,10,21.80
2006,09,27,14,11,21.80
2006,09,27,14,12,21.90
2006,09,27,14,13,22.00
2006,09,27,14,14,22.00
2006,09,27,14,15,22.00
2006,09,27,14,16,22.00
2006,09,27,14,17,22.10
2006,09,27,14,18,22.10
2006,09,27,14,19,22.10
2006,09,27,14,20,22.10
2006,09,27,14,21,22.10
2006,09,27,14,22,22.10
2006,09,27,14,23,22.20
2006,09,27,14,24,22.30
2006,09,27,14,25,22.30
2006,09,27,14,26,22.40
2006,09,27,14,27,22.50
2006,09,27,14,28,22.50
2006,09,27,14,29,22.40
2006,09,27,14,30,22.40
2006,09,27,14,31,22.40
2006,09,27,14,32,22.40
2006,09,27,14,33,22.50
2006,09,27,14,34,22.50
2006,09,27,14,35,22.60
2006,09,27,14,36,22.70
2006,09,27,14,37,22.80
2006,09,27,14,38,22.80
2006,09,27,14,39,22.90
2006,09,27,14,40,23.10
2006,09,27,14,41,23.20
2006,09,27,14,42,23.30
2006,09,27,14,43,23.20
2006,09,27,14,44,23.10
2006,09,27,14,45,23.10
2006,09,27,14,46,23.00
2006,09,27,14,47,22.90
2006,09,27,14,48,22.80
2006,09,27,14,49,22.80
2006,09,27,14,50,22.90
2006,09,27,14,51,23.00
2006,09,27,14,52,23.00
2006,09,27,14,53,23.00
2006,09,27,14,54,23.00
2006,09,27,14,55,22.90
2006,09,27,14,56,22.90
2006,09,27,14,57,22.90
2006,09,27,14,58,22.90
2006,09,27,14,59,22.90
2006,09,27,15,00,22.90
2006,09,27,15,01,22.90
2006,09,27,15,02,23.00
2006,09,27,15,03,23.10
2006,09,27,15,04,23.10
2006,09,27,15,05,23.20
2006,09,27,15,06,23.30
2006,09,27,15,07,23.50
2006,09,27,15,08,23.60
2006,09,27,15,09,23.70
2006,09,27,15,10,23.60
2006,09,27,15,11,23.70
2006,09,27,15,12,23.70
2006,09,27,15,13,23.60
2006,09,27,15,14,23.60
2006,09,27,15,15,23.70
2006,09,27,15,16,23.80
2006,09,27,15,17,23.90
2006,09,27,15,18,23.90
2006,09,27,15,19,23.80
2006,09,27,15,20,23.70
2006,09,27,15,21,23.70
2006,09,27,15,22,23.70
2006,09,27,15,23,23.70
2006,09,27,15,24,23.80
2006,09,27,15,25,23.80
2006,09,27,15,26,23.90
2006,09,27,15,27,24.00
2006,09,27,15,28,23.90
2006,09,27,15,29,23.90
2006,09,27,15,30,23.90
2006,09,27,15,31,23.80
2006,09,27,15,32,23.60
2006,09,27,15,33,23.50
2006,09,27,15,34,23.40
2006,09,27,15,35,23.30
2006,09,27,15,36,23.30
2006,09,27,15,37,23.30
2006,09,27,15,38,23.30
2006,09,27,15,39,23.30
2006,09,27,15,40,23.30
2006,09,27,15,41,23.30
2006,09,27,15,42,23.30
2006,09,27,15,43,23.20
2006,09,27,15,44,23.20
2006,09,27,15,45,23.20
2006,09,27,15,46,23.10
2006,09,27,15,47,23.20
2006,09,27,15,48,23.20
2006,09,27,15,49,23.20
2006,09,27,15,50,23.20
2006,09,27,15,51,23.20
2006,09,27,15,52,23.30
2006,09,27,15,53,23.30
2006,09,27,15,54,23.40
2006,09,27,15,55,23.40
2006,09,27,15,56,23.50
2006,09,27,15,57,23.60
2006,09,27,15,58,23.60
2006,09,27,15,59,23.50
2006,09,27,16,00,23.40
2006,09,27,16,01,23.30
2006,09,27,16,02,23.20
2006,09,27,16,03,23.10
2006,09,27,16,04,23.00
2006,09,27,16,05,23.10
2006,09,27,16,06,23.20
2006,09,27,16,07,23.20
2006,09,27,16,08,23.30
2006,09,27,16,09,23.30
2006,09,27,16,10,23.30
2006,09,27,16,11,23.30
2006,09,27,16,12,23.30
2006,09,27,16,13,23.30
2006,09,27,16,14,23.20
2006,09,27,16,15,23.30
2006,09,27,16,16,23.30
2006,09,27,16,17,23.20
2006,09,27,16,18,23.10
2006,09,27,16,19,23.00
2006,09,27,16,20,23.00
2006,09,27,16,21,22.90
2006,09,27,16,22,22.90
2006,09,27,16,23,22.90
2006,09,27,16,24,22.80
2006,09,27,16,25,22.80
2006,09,27,16,26,22.80
2006,09,27,16,27,22.70
2006,09,27,16,28,22.70
2006,09,27,16,29,22.70
2006,09,27,16,30,22.70
2006,09,27,16,31,22.70
2006,09,27,16,32,22.70
2006,09,27,16,33,22.70
2006,09,27,16,34,22.80
2006,09,27,16,35,22.80
2006,09,27,16,36,22.90
2006,09,27,16,37,23.00
2006,09,27,16,38,23.10
2006,09,27,16,39,23.10
2006,09,27,16,40,23.00
2006,09,27,16,41,23.00
2006,09,27,16,42,23.00
2006,09,27,16,43,23.10
2006,09,27,16,44,23.20
2006,09,27,16,45,23.30
2006,09,27,16,46,23.30
2006,09,27,16,47,23.30
2006,09,27,16,48,23.30
2006,09,27,16,49,23.30
2006,09,27,16,50,23.30
2006,09,27,16,51,23.20
2006,09,27,16,52,23.20
2006,09,27,16,53,23.20
2006,09,27,16,54,23.20
2006,09,27,16,55,23.10
2006,09,27,16,56,23.00
2006,09,27,16,57,23.10
2006,09,27,16,58,23.20
2006,09,27,16,59,23.20
2006,09,27,17,00,23.20
2006,09,27,17,01,23.20
2006,09,27,17,02,23.20
2006,09,27,17,03,23.30
2006,09,27,17,04,23.30
2006,09,27,17,05,23.30
2006,09,27,17,06,23.30
2006,09,27,17,07,23.40
2006,09,27,17,08,23.40
2006,09,27,17,09,23.40
2006,09,27,17,10,23.40
2006,09,27,17,11,23.30
2006,09,27,17,12,23.30
2006,09,27,17,13,23.30
2006,09,27,17,14,23.30
2006,09,27,17,15,23.30
2006,09,27,17,16,23.40
2006,09,27,17,17,23.40
2006,09,27,17,18,23.50
2006,09,27,17,19,23.50